Tracking 29892 objects as of 21-Nov-2024
HD Live streaming from Space Station
objects crossing your sky now

STARLINK-11267

Track STARLINK-11267 now!
10-day predictions
STARLINK-11267 is classified as:


NORAD ID: 60994
Int'l Code: 2024-158E
Perigee: 366.0 km
Apogee: 367.9 km
Inclination: 53.2 °
Period: 91.7 minutes
Semi major axis: 6737 km
RCS: Unknown
Launch date: September 5, 2024
Source: United States (US)
Launch site: AIR FORCE EASTERN TEST RANGE (AFETR)
Your satellite tracking list
Your tracking list is empty




NASA's NSSDC Master Catalog

Two Line Element Set (TLE):
1 60994U 24158E   24325.75475525 -.00004968  00000-0 -36195-4 0  9991
2 60994  53.1565  97.8947 0001403  99.2212 260.8964 15.69692342 13154
Source of the keplerian elements: AFSPC